GW5701 Weather Reports


time (UTC)temp
C
wind
direction
speed
KPH
gust
KPH
rain 1hr
cm
rain 24hr
cm
rain mn
cm
humidity
%
barometer
mb
20260508002048 15 299 4.8 12.9 0.00 0.00 0.00 42 1010.9
20260508000048 15 291 6.4 14.5 0.00 0.00 0.00 43 1010.4
20260507235048 15 304 6.4 12.9 0.00 0.00 0.00 42 1010.3
20260507234047 16 309 4.8 11.3 0.00 0.00 0.00 43 1010.2
20260507233047 16 311 6.4 11.3 0.00 0.00 0.00 41 1010.0
20260507232049 17 266 4.8 9.7 0.00 0.00 0.00 65 1009.8
20260507231047 18 254 3.2 14.5 0.00 0.00 0.00 63 1009.5
20260507230048 17 194 4.8 12.9 0.00 0.00 0.00 63 1009.4
20260507225047 18 245 4.8 9.7 0.00 0.00 0.00 61 1009.3
20260507224048 18 234 3.2 11.3 0.00 0.00 0.00 61 1009.1
20260507223047 17 290 4.8 8.0 0.00 0.00 0.00 62 1009.1
20260507222048 17 219 4.8 16.1 0.00 0.00 0.00 62 1008.9
20260507221047 19 167 4.8 11.3 0.00 0.00 0.00 55 1008.9
20260507220047 20 249 3.2 9.7 0.00 0.00 0.00 56 1008.7
20260507215049 18 240 3.2 11.3 0.00 0.00 0.00 59 1008.7
20260507214048 18 270 4.8 12.9 0.00 0.00 0.00 58 1008.7
20260507213048 18 260 6.4 14.5 0.00 0.00 0.00 57 1008.8
20260507212047 19 258 3.2 14.5 0.00 0.00 0.00 56 1008.7
20260507211047 19 236 4.8 14.5 0.00 0.00 0.00 55 1008.6
20260507210047 19 176 6.4 17.7 0.00 0.00 0.00 54 1008.6
20260507205047 19 218 6.4 12.9 0.00 0.00 0.00 55 1008.6
20260507204048 18 183 8.0 16.1 0.00 0.00 0.00 56 1008.6
20260507203047 19 234 4.8 11.3 0.00 0.00 0.00 55 1008.6
20260507202048 18 233 6.4 12.9 0.00 0.00 0.00 59 1008.7
20260507201049 20 230 1.6 16.1 0.00 0.00 0.00 51 1008.8
20260507200048 18 186 9.7 17.7 0.00 0.00 0.00 58 1009.0
20260507195047 18 210 6.4 14.5 0.00 0.00 0.00 56 1009.1
20260507194048 18 195 8.0 16.1 0.00 0.00 0.00 57 1009.1
20260507193047 17 158 8.0 16.1 0.00 0.00 0.00 59 1009.2
20260507192047 16 150 8.0 14.5 0.00 0.00 0.00 60 1009.4
20260507191047 16 167 4.8 11.3 0.00 0.00 0.00 61 1009.5
20260507190047 17 162 6.4 14.5 0.00 0.00 0.00 61 1009.7
20260507185047 16 191 3.2 12.9 0.00 0.00 0.00 64 1009.7
20260507184047 16 154 8.0 16.1 0.00 0.00 0.00 63 1009.7
20260507183047 16 212 4.8 16.1 0.00 0.00 0.00 58 1009.7
20260507182047 17 0.0 14.5 0.00 0.00 0.00 59 1009.7
20260507181047 17 232 3.2 6.4 0.00 0.00 0.00 56 1009.9
20260507180048 16 283 3.2 9.7 0.00 0.00 0.00 58 1010.1
20260507175048 15 0.0 6.4 0.00 0.00 0.00 62 1010.3
20260507174047 15 90 3.2 6.4 0.00 0.00 0.00 59 1010.4
20260507173047 15 108 1.6 8.0 0.00 0.00 0.00 63 1010.7
20260507172048 16 142 3.2 11.3 0.00 0.00 0.00 60 1010.7
20260507171047 15 9 1.6 6.4 0.00 0.00 0.00 62 1011.0
20260507170051 15 26 3.2 6.4 0.00 0.00 0.00 58 1011.0
20260507165047 16 356 0.0 9.7 0.00 0.00 0.00 59 1011.1
20260507164048 15 26 4.8 11.3 0.00 0.00 0.00 61 1011.3
20260507163047 15 50 6.4 11.3 0.00 0.00 0.00 62 1011.4
20260507162048 15 116 4.8 11.3 0.00 0.00 0.00 59 1011.5
20260507161050 14 0.0 9.7 0.00 0.00 0.00 67 1011.6
20260507160047 13 47 4.8 11.3 0.00 0.00 0.00 67 1011.8
20260507155047 14 35 4.8 9.7 0.00 0.00 0.00 66 1012.1
20260507154048 13 52 6.4 11.3 0.00 0.00 0.00 69 1012.2
20260507153047 13 36 4.8 11.3 0.00 0.00 0.00 68 1012.1
20260507152049 13 47 8.0 17.7 0.00 0.00 0.00 71 1012.2
20260507151047 12 37 6.4 14.5 0.00 0.00 0.00 73 1012.3
20260507150048 12 41 3.2 8.0 0.00 0.00 0.00 76 1012.3
20260507145047 11 17 4.8 16.1 0.00 0.00 0.00 77 1012.5
20260507144047 11 24 6.4 12.9 0.00 0.00 0.00 79 1012.5
20260507143048 11 34 6.4 12.9 0.00 0.00 0.00 79 1012.7
20260507142047 11 35 4.8 17.7 0.00 0.00 0.00 80 1012.8
20260507141048 11 60 6.4 17.7 0.00 0.00 0.00 82 1013.0
20260507140048 11 27 4.8 17.7 0.00 0.00 0.00 82 1013.0
20260507135048 11 54 6.4 16.1 0.00 0.00 0.00 82 1013.1
20260507134047 11 40 6.4 14.5 0.00 0.00 0.00 83 1013.0
20260507133047 11 53 6.4 16.1 0.00 0.00 0.00 83 1013.0
20260507132047 11 38 6.4 12.9 0.00 0.00 0.00 83 1013.2
20260507131049 11 9 4.8 11.3 0.00 0.00 0.00 84 1013.1
20260507130048 11 27 4.8 8.0 0.00 0.00 0.00 84 1013.3
20260507125048 10 34 3.2 9.7 0.00 0.00 0.00 86 1013.4
20260507124047 10 50 3.2 11.3 0.00 0.00 0.00 86 1013.3
20260507123048 10 48 3.2 8.0 0.00 0.00 0.00 86 1013.3
20260507122047 10 43 4.8 9.7 0.00 0.00 0.00 86 1013.0
20260507121047 10 53 4.8 11.3 0.00 0.00 0.00 85 1012.9
20260507120048 10 43 4.8 14.5 0.00 0.00 0.00 84 1012.8
20260507115049 10 33 3.2 9.7 0.00 0.00 0.00 85 1012.7
20260507114047 10 14 3.2 11.3 0.00 0.00 0.00 85 1012.8
20260507113047 10 45 4.8 14.5 0.00 0.00 0.00 84 1012.5
20260507112047 10 46 4.8 9.7 0.00 0.00 0.00 85 1012.5
20260507111047 10 33 3.2 6.4 0.00 0.00 0.00 86 1012.6
20260507110047 10 17 3.2 11.3 0.00 0.00 0.00 86 1012.3
20260507105048 10 22 4.8 9.7 0.00 0.00 0.00 85 1012.1
20260507104049 10 34 3.2 11.3 0.00 0.00 0.00 85 1012.2
20260507103049 10 44 4.8 12.9 0.00 0.00 0.00 85 1011.9
20260507102047 10 46 4.8 11.3 0.00 0.00 0.00 86 1012.2
20260507101047 10 49 8.0 16.1 0.00 0.00 0.00 86 1012.2
20260507100047 10 29 4.8 11.3 0.00 0.00 0.00 87 1012.3
20260507095047 10 49 4.8 12.9 0.00 0.00 0.00 86 1012.1
20260507094048 10 34 6.4 12.9 0.00 0.00 0.00 87 1012.0
20260507093047 10 42 4.8 16.1 0.00 0.00 0.00 87 1011.9
20260507092048 10 41 6.4 16.1 0.00 0.00 0.00 87 1011.9
20260507091047 10 53 8.0 16.1 0.00 0.00 0.00 87 1011.8
20260507090048 10 48 4.8 12.9 0.00 0.00 0.00 88 1011.8
20260507085047 10 37 4.8 12.9 0.00 0.00 0.00 89 1011.9
20260507084047 10 43 8.0 12.9 0.00 0.00 0.00 89 1011.6
20260507083048 11 49 8.0 17.7 0.00 0.00 0.00 90 1011.4
20260507082047 11 42 8.0 17.7 0.00 0.00 0.00 90 1011.7
20260507081048 11 36 9.7 16.1 0.00 0.00 0.00 90 1011.7
20260507080048 11 56 6.4 14.5 0.00 0.00 0.00 91 1011.9
20260507075047 11 46 8.0 16.1 0.00 0.00 0.00 91 1011.7
20260507074052 11 46 9.7 14.5 0.00 0.00 0.00 92 1011.7
20260507073047 11 44 6.4 16.1 0.00 0.00 0.00 92 1011.8
20260507072047 11 37 9.7 17.7 0.00 0.00 0.00 92 1011.5
20260507071048 12 34 9.7 25.7 0.00 0.00 0.00 92 1011.2
20260507070048 12 32 6.4 20.9 0.00 0.00 0.00 93 1011.2
20260507065048 12 41 6.4 19.3 0.00 0.00 0.00 94 1011.2
20260507064047 12 51 9.7 16.1 0.00 0.00 0.00 94 1011.1
20260507063047 12 9 6.4 16.1 0.00 0.00 0.00 94 1011.6
20260507062048 12 42 6.4 16.1 0.00 0.00 0.00 94 1011.4
20260507061047 12 49 8.0 17.7 0.00 0.00 0.00 94 1011.2
20260507060047 12 26 6.4 14.5 0.00 0.00 0.00 95 1011.3
20260507055048 13 38 3.2 11.3 0.00 0.00 0.00 95 1011.6
20260507054048 13 42 8.0 16.1 0.00 0.00 0.00 94 1011.5
20260507053047 13 51 6.4 11.3 0.00 0.00 0.00 95 1011.8
20260507052047 13 45 6.4 16.1 0.00 0.00 0.00 95 1011.3
20260507051047 13 332 3.2 11.3 0.00 0.00 0.00 96 1011.5
20260507050047 13 14 3.2 16.1 0.00 0.00 0.00 96 1011.1
20260507045047 14 18 4.8 8.0 0.00 0.00 0.00 97 1010.8
20260507044048 14 314 1.6 9.7 0.00 0.00 0.00 97 1010.8
20260507043050 15 345 3.2 8.0 0.00 0.00 0.00 96 1010.5
20260507042047 15 172 3.2 16.1 0.00 0.00 0.00 96 1009.7
20260507041048 15 104 3.2 11.3 0.00 0.00 0.00 96 1010.0
20260507040048 15 108 3.2 11.3 0.00 0.00 0.00 96 1010.8
20260507035048 15 26 0.0 4.8 0.00 0.00 0.36 96 1011.3
20260507034047 15 116 1.6 6.4 0.00 0.00 0.36 95 1011.3
20260507033047 15 348 1.6 4.8 0.00 0.00 0.36 95 1011.5
20260507032048 15 343 1.6 4.8 0.00 0.00 0.36 95 1011.3
20260507031051 15 54 1.6 4.8 0.00 0.00 0.36 95 1010.8
20260507030047 15 296 1.6 4.8 0.00 0.00 0.36 96 1011.0
20260507025047 15 13 1.6 3.2 0.00 0.00 0.36 96 1010.8
20260507024047 16 111 1.6 6.4 0.00 0.00 0.36 95 1011.1
20260507023048 16 45 1.6 3.2 0.00 0.00 0.36 96 1010.8
20260507022047 16 309 3.2 4.8 0.00 0.00 0.36 95 1010.7
20260507021047 16 216 1.6 4.8 0.00 0.00 0.36 95 1010.1
20260507020048 16 297 1.6 4.8 0.00 0.00 0.36 95 1010.4
20260507015046 16 321 1.6 6.4 0.00 0.00 0.36 96 1010.4
20260507014048 16 27 3.2 4.8 0.00 0.00 0.36 96 1010.3
20260507013048 16 295 1.6 4.8 0.00 0.00 0.36 95 1010.1
20260507012050 17 46 3.2 8.0 0.00 0.00 0.36 95 1009.7
20260507011048 17 27 1.6 8.0 0.00 0.00 0.36 94 1009.8
20260507010047 17 68 4.8 12.9 0.00 0.00 0.36 93 1009.9
20260507005048 17 45 1.6 8.0 0.00 0.00 0.36 93 1010.4
20260507004048 17 156 3.2 9.7 0.00 0.00 0.36 94 1010.4
20260507003048 17 44 1.6 6.4 0.00 0.00 0.36 94 1010.3